Preview of NWS' New Version of Forecast
This preview is not operational and should not be used for support decisions.

Regional Weather Roundup (RWR)

Issued by National Weather Service (NWS)

                            
000
ASUS45 KBOI 240510
RWRID 

IDAHO REGIONAL WEATHER ROUNDUP
NATIONAL WEATHER SERVICE BOISE ID
1100 PM MDT SUN JUN 23 2019

NOTE: "FAIR" INDICATES FEW OR NO CLOUDS BELOW 12000 FEET
WITH NO SIGNIFICANT WEATHER AND/OR OBSTRUCTIONS TO VISIBILITY

IDZ012-014-240600-
SOUTHWEST IDAHO

  
CITY           SKY/WX    TMP DP  RH WIND       PRES   REMARKS
BOISE          CLEAR     66  36  32 NW6       29.97R                  
CALDWELL       CLEAR     62  42  47 W6        29.97R                  
MOUNTAIN HOME  CLEAR     62  35  37 NW8       29.97R                  
$$

IDZ016-017-240600-
SOUTHCENTRAL IDAHO

  
CITY           SKY/WX    TMP DP  RH WIND       PRES   REMARKS
BURLEY         CLEAR     57  38  48 SW8       29.98R                  
JEROME         CLEAR     62  35  36 NW6       29.98R                  
TWIN FALLS     CLEAR     56  36  47 SW9       30.00R                  
$$

IDZ019>023-240600-
SOUTHEAST IDAHO

  
CITY           SKY/WX    TMP DP  RH WIND       PRES   REMARKS
IDAHO FALLS    CLEAR     60  37  42 SW18      29.94S                  
POCATELLO      CLEAR     59  33  37 SW14      29.97R                  
REXBURG        CLEAR     58  38  47 S12       29.93R                  
$$

IDZ006-010-011-018-031-032-240600-
CENTRAL IDAHO MOUNTAINS

  
CITY           SKY/WX    TMP DP  RH WIND       PRES   REMARKS
MCCALL         CLEAR     53  38  56 NW3       30.03R                  
HAILEY         CLEAR     57  30  35 NW9       30.02R                  
STANLEY          N/A     43  28  55 S5        30.08S                  
SALMON         CLOUDY    59  42  53 VRB3      29.96R                  
CHALLIS        CLEAR     63  29  27 W14       29.97R                  
$$

IDZ002-004-006-007-026-240600-
NORTHERN IDAHO

  
CITY           SKY/WX    TMP DP  RH WIND       PRES   REMARKS
LEWISTON       MOCLDY    67  41  38 S6        29.93S                  
LOWELL           N/A     57  52  83 N3        29.98R                  
COEUR D'ALENE  CLOUDY    64  45  49 CALM      29.92S                  
MULLAN PASS    CLOUDY    45  38  76 VRB3      30.02S                  
$$